,,,PA_Meas_PMT16A,,PR_Meas_QMR101_102,,RH_Meas_QMH101,,SR_Meas_QMS101,,TA_Meas_QMH101,,GenWind,,GenWind,
date,time,status,PA,status,PR,status,RH,status,SR,status,TA,status,DirAvg,status,SpdAvg,
2010-12-23, 00:00:04,VALID,996.695,VALID,0,VALID,89.9609,VALID,0,VALID,22.825,VALID,40,VALID,0.943359,
2010-12-23, 00:01:04,VALID,996.711,VALID,0,VALID,89.7472,VALID,0,VALID,22.8037,VALID,40,VALID,0.843359,
2010-12-23, 00:02:04,VALID,996.716,VALID,0,VALID,89.6251,VALID,0,VALID,22.8037,VALID,40,VALID,0.812891,
2010-12-23, 00:03:04,VALID,996.685,VALID,0,VALID,89.5717,VALID,0,VALID,22.8037,VALID,40,VALID,0.717578,
2010-12-23, 00:04:04,VALID,996.692,VALID,0,VALID,89.6099,VALID,0,VALID,22.8037,VALID,40,VALID,0.541016,
2010-12-23, 00:05:04,VALID,996.72,VALID,0,VALID,89.6023,VALID,0,VALID,22.7842,VALID,24,VALID,0.548047,
2010-12-23, 00:06:04,VALID,996.68,VALID,0,VALID,89.587,VALID,0,VALID,22.7452,VALID,20,VALID,1.03281,
2010-12-23, 00:07:04,VALID,996.667,VALID,0,VALID,89.5336,VALID,0,VALID,22.7257,VALID,20,VALID,0.888672,
2010-12-23, 00:08:04,VALID,996.663,VALID,0,VALID,89.5641,VALID,0,VALID,22.6867,VALID,20,VALID,0.742188,
2010-12-23, 00:09:04,VALID,996.67,VALID,0,VALID,89.6175,VALID,0,VALID,22.6672,VALID,20,VALID,0.649609,
2010-12-23, 00:10:04,VALID,996.627,VALID,0,VALID,89.7472,VALID,0,VALID,22.6494,VALID,20,VALID,0.507422,
2010-12-23, 00:11:04,VALID,996.619,VALID,0,VALID,89.8846,VALID,0,VALID,22.6264,VALID,20,VALID,0.484375,
2010-12-23, 00:12:04,VALID,996.612,VALID,0,VALID,90.0829,VALID,0,VALID,22.6069,VALID,20,VALID,0.639063,
2010-12-23, 00:13:04,VALID,996.597,VALID,0,VALID,90.1745,VALID,0,VALID,22.6069,VALID,20,VALID,0.498828,
2010-12-23, 00:14:04,VALID,996.573,VALID,0,VALID,90.3271,VALID,0,VALID,22.6282,VALID,20,VALID,0.326562,
2010-12-23, 00:15:04,VALID,996.59,VALID,0,VALID,90.472,VALID,0,VALID,22.6264,VALID,20,VALID,0.360156,
2010-12-23, 00:16:04,VALID,996.531,VALID,0,VALID,90.5941,VALID,0,VALID,22.6264,VALID,20,VALID,0.373047,
2010-12-23, 00:17:04,VALID,996.472,VALID,0,VALID,90.6551,VALID,0.112286,VALID,22.646,VALID,24,VALID,0.539844,
2010-12-23, 00:18:04,VALID,996.481,VALID,0,VALID,90.6628,VALID,0,VALID,22.646,VALID,51,VALID,0.560547,
2010-12-23, 00:19:04,VALID,996.483,VALID,0,VALID,90.6323,VALID,0,VALID,22.6672,VALID,51,VALID,0.447656,
2010-12-23, 00:20:04,VALID,996.442,VALID,0,VALID,90.6094,VALID,0,VALID,22.6655,VALID,51,VALID,0.455078,
2010-12-23, 00:21:04,VALID,996.442,VALID,0,VALID,90.6399,VALID,0,VALID,22.7062,VALID,51,VALID,0.505859,
2010-12-23, 00:22:04,VALID,996.43,VALID,0,VALID,90.7543,VALID,0,VALID,22.7452,VALID,51,VALID,0.552734,
2010-12-23, 00:23:04,VALID,996.445,VALID,0,VALID,90.884,VALID,0,VALID,22.763,VALID,108,VALID,0.761719,
2010-12-23, 00:24:04,VALID,996.469,VALID,0,VALID,91.0061,VALID,0,VALID,22.7825,VALID,109,VALID,0.803516,
2010-12-23, 00:25:04,VALID,996.474,VALID,0,VALID,91.0977,VALID,0,VALID,22.802,VALID,109,VALID,0.615625,
2010-12-23, 00:26:04,VALID,996.484,VALID,0,VALID,91.1663,VALID,0,VALID,22.825,VALID,120,VALID,0.907812,
2010-12-23, 00:27:04,VALID,996.453,VALID,0,VALID,91.1816,VALID,0,VALID,22.8445,VALID,120,VALID,0.719922,
2010-12-23, 00:28:04,VALID,996.488,VALID,0,VALID,91.1816,VALID,0,VALID,22.864,VALID,128,VALID,0.786328,
2010-12-23, 00:29:04,VALID,996.449,VALID,0,VALID,91.1511,VALID,0,VALID,22.8427,VALID,129,VALID,1.025,
2010-12-23, 00:30:04,VALID,996.461,VALID,0,VALID,91.1206,VALID,0,VALID,22.8623,VALID,131,VALID,0.931641,
2010-12-23, 00:31:04,VALID,996.445,VALID,0,VALID,91.0748,VALID,0,VALID,22.903,VALID,131,VALID,0.766406,
2010-12-23, 00:32:04,VALID,996.426,VALID,0,VALID,90.9909,VALID,0,VALID,22.8818,VALID,131,VALID,0.836328,
2010-12-23, 00:33:04,VALID,996.395,VALID,0,VALID,90.9374,VALID,0,VALID,22.8818,VALID,131,VALID,0.737109,
2010-12-23, 00:34:04,VALID,996.399,VALID,0,VALID,90.8764,VALID,0,VALID,22.8818,VALID,127,VALID,0.748047,
2010-12-23, 00:35:04,VALID,996.376,VALID,0,VALID,90.8306,VALID,0,VALID,22.903,VALID,127,VALID,0.726953,
2010-12-23, 00:36:04,VALID,996.412,VALID,0,VALID,90.7849,VALID,0,VALID,22.8818,VALID,127,VALID,0.751172,
2010-12-23, 00:37:04,VALID,996.352,VALID,0,VALID,90.7314,VALID,0,VALID,22.903,VALID,127,VALID,0.703906,
2010-12-23, 00:38:04,VALID,996.365,VALID,0,VALID,90.7009,VALID,0,VALID,22.8818,VALID,127,VALID,0.59375,
2010-12-23, 00:39:04,VALID,996.335,VALID,0,VALID,90.6933,VALID,0,VALID,22.903,VALID,117,VALID,0.747266,
2010-12-23, 00:40:04,VALID,996.339,VALID,0,VALID,90.678,VALID,0,VALID,22.9013,VALID,112,VALID,0.71875,
2010-12-23, 00:41:04,VALID,996.324,VALID,0,VALID,90.6551,VALID,0,VALID,22.9225,VALID,112,VALID,0.603516,
2010-12-23, 00:42:04,VALID,996.329,VALID,0,VALID,90.6475,VALID,0,VALID,22.9208,VALID,112,VALID,0.569531,
2010-12-23, 00:43:04,VALID,996.319,VALID,0,VALID,90.6857,VALID,0,VALID,22.9013,VALID,97,VALID,0.597656,
2010-12-23, 00:44:04,VALID,996.282,VALID,0,VALID,90.6933,VALID,0,VALID,22.9208,VALID,97,VALID,0.570703,
2010-12-23, 00:45:04,VALID,996.307,VALID,0,VALID,90.6628,VALID,0,VALID,22.9403,VALID,97,VALID,0.369922,
2010-12-23, 00:46:04,VALID,996.299,VALID,0,VALID,90.5636,VALID,0,VALID,22.9013,VALID,97,VALID,0.124219,
2010-12-23, 00:47:04,VALID,996.295,VALID,0,VALID,90.4644,VALID,0,VALID,22.903,VALID,97,VALID,0.411328,
2010-12-23, 00:48:04,VALID,996.293,VALID,0,VALID,90.4491,VALID,0,VALID,22.8623,VALID,97,VALID,0.182422,
2010-12-23, 00:49:04,VALID,996.269,VALID,0,VALID,90.5026,VALID,0,VALID,22.8427,VALID,97,VALID,0,
2010-12-23, 00:50:04,VALID,996.273,VALID,0,VALID,90.5026,VALID,0,VALID,22.8232,VALID,97,VALID,0,
2010-12-23, 00:51:04,VALID,996.264,VALID,0,VALID,90.5178,VALID,0,VALID,22.8037,VALID,97,VALID,0,
2010-12-23, 00:52:05,VALID,996.248,VALID,0,VALID,90.617,VALID,0,VALID,22.825,VALID,97,VALID,0,
2010-12-23, 00:53:05,VALID,996.272,VALID,0,VALID,90.7085,VALID,0,VALID,22.7842,VALID,97,VALID,0,
2010-12-23, 00:54:05,VALID,996.247,VALID,0,VALID,90.7696,VALID,0,VALID,22.7842,VALID,97,VALID,0.0308594,
2010-12-23, 00:55:05,VALID,996.227,VALID,0,VALID,90.8154,VALID,0,VALID,22.786,VALID,97,VALID,0,
2010-12-23, 00:56:05,VALID,996.23,VALID,0,VALID,90.8764,VALID,0,VALID,22.7647,VALID,97,VALID,0,
2010-12-23, 00:57:05,VALID,996.215,VALID,0,VALID,90.9527,VALID,0,VALID,22.7452,VALID,97,VALID,0,
2010-12-23, 00:58:05,VALID,996.21,VALID,0,VALID,91.0214,VALID,0,VALID,22.7647,VALID,97,VALID,0.115625,
2010-12-23, 00:59:05,VALID,996.2,VALID,0,VALID,91.0595,VALID,0,VALID,22.7664,VALID,97,VALID,0.400391,
2010-12-23, 01:00:05,VALID,996.187,VALID,0,VALID,91.0671,VALID,0,VALID,22.786,VALID,97,VALID,0.367969,
2010-12-23, 01:01:05,VALID,996.192,VALID,0,VALID,90.9527,VALID,0,VALID,22.7647,VALID,97,VALID,0.387109,
2010-12-23, 01:02:05,VALID,996.209,VALID,0,VALID,90.8535,VALID,0,VALID,22.7842,VALID,97,VALID,0.218359,
2010-12-23, 01:03:05,VALID,996.183,VALID,0,VALID,90.762,VALID,0,VALID,22.8055,VALID,97,VALID,0.170703,
2010-12-23, 01:04:05,VALID,996.167,VALID,0,VALID,90.6857,VALID,0,VALID,22.7842,VALID,97,VALID,0.0671875,
2010-12-23, 01:05:05,VALID,996.182,VALID,0,VALID,90.617,VALID,0,VALID,22.786,VALID,97,VALID,0.0523437,
2010-12-23, 01:06:05,VALID,996.142,VALID,0,VALID,90.5865,VALID,0,VALID,22.8055,VALID,97,VALID,0.0078125,
2010-12-23, 01:07:05,VALID,996.139,VALID,0,VALID,90.6551,VALID,0,VALID,22.7647,VALID,97,VALID,0.0359375,
2010-12-23, 01:08:05,VALID,996.118,VALID,0,VALID,90.6399,VALID,0,VALID,22.7452,VALID,97,VALID,0.0683594,
2010-12-23, 01:09:05,VALID,996.138,VALID,0,VALID,90.6323,VALID,0,VALID,22.7257,VALID,97,VALID,0.0128906,
2010-12-23, 01:10:05,VALID,996.135,VALID,0,VALID,90.6017,VALID,0,VALID,22.7062,VALID,97,VALID,0.202344,
2010-12-23, 01:11:05,VALID,996.156,VALID,0,VALID,90.6246,VALID,0,VALID,22.7274,VALID,97,VALID,0.0308594,
2010-12-23, 01:12:05,VALID,996.151,VALID,0,VALID,90.678,VALID,0,VALID,22.6672,VALID,97,VALID,0.0917969,
2010-12-23, 01:13:05,VALID,996.143,VALID,0,VALID,90.7696,VALID,0,VALID,22.6672,VALID,97,VALID,0,
2010-12-23, 01:14:05,VALID,996.117,VALID,0,VALID,90.8535,VALID,0,VALID,22.6477,VALID,97,VALID,0.302734,
2010-12-23, 01:15:05,VALID,996.12,VALID,0,VALID,90.9374,VALID,0,VALID,22.6689,VALID,97,VALID,0.248437,
2010-12-23, 01:16:05,VALID,996.124,VALID,0,VALID,91.0061,VALID,0,VALID,22.6477,VALID,97,VALID,0.253516,
2010-12-23, 01:17:05,VALID,996.117,VALID,0,VALID,91.09,VALID,0,VALID,22.6282,VALID,97,VALID,0.129297,
2010-12-23, 01:18:05,VALID,996.118,VALID,0,VALID,91.1206,VALID,0,VALID,22.6689,VALID,97,VALID,0,
2010-12-23, 01:19:05,VALID,996.072,VALID,0,VALID,91.1434,VALID,0,VALID,22.6689,VALID,97,VALID,0.00351562,
2010-12-23, 01:20:05,VALID,996.103,VALID,0,VALID,91.1892,VALID,0,VALID,22.6689,VALID,98,VALID,0.229297,
2010-12-23, 01:21:05,VALID,996.094,VALID,0,VALID,91.2426,VALID,0,VALID,22.6884,VALID,102,VALID,0.559766,
2010-12-23, 01:22:05,VALID,996.06,VALID,0,VALID,91.3189,VALID,0,VALID,22.6867,VALID,103,VALID,0.580469,
2010-12-23, 01:23:05,VALID,996.061,VALID,0,VALID,91.3723,VALID,0,VALID,22.7257,VALID,103,VALID,0.41875,
2010-12-23, 01:24:05,VALID,996.083,VALID,0,VALID,91.4257,VALID,0,VALID,22.786,VALID,108,VALID,0.512109,
2010-12-23, 01:25:05,VALID,996.054,VALID,0,VALID,91.4028,VALID,0,VALID,22.8232,VALID,114,VALID,0.434766,
2010-12-23, 01:26:05,VALID,996.07,VALID,0,VALID,91.3189,VALID,0,VALID,22.841,VALID,114,VALID,0.333984,
2010-12-23, 01:27:05,VALID,996.08,VALID,0,VALID,91.2426,VALID,0,VALID,22.88,VALID,114,VALID,0.0675781,
2010-12-23, 01:28:05,VALID,996.068,VALID,0,VALID,91.09,VALID,0,VALID,22.8995,VALID,114,VALID,0.336328,
2010-12-23, 01:29:05,VALID,996.052,VALID,0,VALID,90.968,VALID,0,VALID,22.9385,VALID,114,VALID,0.311328,
2010-12-23, 01:30:05,VALID,996.061,VALID,0,VALID,90.8306,VALID,0,VALID,22.9776,VALID,114,VALID,0.125391,
2010-12-23, 01:31:05,VALID,996.047,VALID,0,VALID,90.7314,VALID,0,VALID,23.0183,VALID,114,VALID,0.196094,
2010-12-23, 01:32:05,VALID,996.03,VALID,0,VALID,90.5865,VALID,0,VALID,22.9971,VALID,114,VALID,0.0425781,
2010-12-23, 01:33:05,VALID,996.059,VALID,0,VALID,90.5254,VALID,0,VALID,23.0378,VALID,114,VALID,0.0585938,
2010-12-23, 01:34:05,VALID,995.997,VALID,0,VALID,90.4263,VALID,0,VALID,23.0166,VALID,114,VALID,0.182031,
2010-12-23, 01:35:05,VALID,995.989,VALID,0,VALID,90.3423,VALID,0,VALID,22.9971,VALID,114,VALID,0.0417969,
2010-12-23, 01:36:05,VALID,995.964,VALID,0,VALID,90.3423,VALID,0,VALID,22.9988,VALID,114,VALID,0,
2010-12-23, 01:37:05,VALID,995.994,VALID,0,VALID,90.3423,VALID,0,VALID,22.9988,VALID,114,VALID,0.156641,
2010-12-23, 01:38:05,VALID,995.957,VALID,0,VALID,90.3728,VALID,0,VALID,22.9793,VALID,114,VALID,0.143359,
2010-12-23, 01:39:05,VALID,995.97,VALID,0,VALID,90.3881,VALID,0,VALID,22.9598,VALID,114,VALID,0.368359,
2010-12-23, 01:40:05,VALID,995.962,VALID,0,VALID,90.4568,VALID,0,VALID,22.9598,VALID,114,VALID,0.400391,
2010-12-23, 01:41:05,VALID,995.956,VALID,0,VALID,90.5788,VALID,0,VALID,22.8995,VALID,114,VALID,0.364844,
2010-12-23, 01:42:05,VALID,995.946,VALID,0,VALID,90.6551,VALID,0,VALID,22.8995,VALID,114,VALID,0.209375,
2010-12-23, 01:43:05,VALID,995.962,VALID,0,VALID,90.7314,VALID,0,VALID,22.8995,VALID,114,VALID,0.178906,
2010-12-23, 01:44:05,VALID,995.974,VALID,0,VALID,90.8077,VALID,0,VALID,22.8995,VALID,114,VALID,0.221094,
2010-12-23, 01:45:05,VALID,995.972,VALID,0,VALID,90.884,VALID,0,VALID,22.9208,VALID,114,VALID,0.149609,
2010-12-23, 01:46:05,VALID,995.998,VALID,0,VALID,90.9298,VALID,0,VALID,22.8995,VALID,114,VALID,0.155469,
2010-12-23, 01:47:05,VALID,995.957,VALID,0,VALID,91.0061,VALID,0,VALID,22.9208,VALID,114,VALID,0.128906,
2010-12-23, 01:48:05,VALID,995.976,VALID,0,VALID,91.1053,VALID,0,VALID,22.88,VALID,114,VALID,0.153906,
2010-12-23, 01:49:05,VALID,995.954,VALID,0,VALID,91.1511,VALID,0,VALID,22.8818,VALID,114,VALID,0.285547,
2010-12-23, 01:50:05,VALID,995.97,VALID,0,VALID,91.1587,VALID,0,VALID,22.841,VALID,114,VALID,0.435937,
2010-12-23, 01:51:05,VALID,995.957,VALID,0,VALID,91.1968,VALID,0,VALID,22.8427,VALID,114,VALID,0.584766,
2010-12-23, 01:52:05,VALID,995.962,VALID,0,VALID,91.2121,VALID,0,VALID,22.8232,VALID,54,VALID,0.683984,
2010-12-23, 01:53:05,VALID,995.967,VALID,0,VALID,91.2121,VALID,0,VALID,22.802,VALID,54,VALID,0.523828,
2010-12-23, 01:54:05,VALID,995.962,VALID,0,VALID,91.2197,VALID,0,VALID,22.802,VALID,54,VALID,0.296875,
2010-12-23, 01:55:05,VALID,995.974,VALID,0,VALID,91.2121,VALID,0,VALID,22.7825,VALID,54,VALID,0.299609,
2010-12-23, 01:56:05,VALID,995.98,VALID,0,VALID,91.2426,VALID,0,VALID,22.825,VALID,54,VALID,0.40625,
2010-12-23, 01:57:05,VALID,995.983,VALID,0,VALID,91.3037,VALID,0,VALID,22.7842,VALID,54,VALID,0.25625,
2010-12-23, 01:58:05,VALID,995.983,VALID,0,VALID,91.38,VALID,0,VALID,22.7842,VALID,54,VALID,0.235547,
2010-12-23, 01:59:05,VALID,995.978,VALID,0,VALID,91.4257,VALID,0,VALID,22.8055,VALID,54,VALID,0.0507813,
2010-12-23, 02:00:05,VALID,995.978,VALID,0,VALID,91.4715,VALID,0,VALID,22.7842,VALID,54,VALID,0.20625,
2010-12-23, 02:01:05,VALID,995.981,VALID,0,VALID,91.5173,VALID,0,VALID,22.8055,VALID,54,VALID,0.252344,
2010-12-23, 02:02:05,VALID,995.986,VALID,0,VALID,91.5402,VALID,0,VALID,22.786,VALID,54,VALID,0.274219,
2010-12-23, 02:03:05,VALID,995.966,VALID,0,VALID,91.5631,VALID,0,VALID,22.7647,VALID,54,VALID,0.261719,
2010-12-23, 02:04:05,VALID,995.986,VALID,0,VALID,91.5936,VALID,0,VALID,22.786,VALID,54,VALID,0.323438,
2010-12-23, 02:05:05,VALID,995.955,VALID,0,VALID,91.6088,VALID,0,VALID,22.7452,VALID,54,VALID,0.263281,
2010-12-23, 02:06:05,VALID,995.952,VALID,0,VALID,91.6317,VALID,0,VALID,22.7664,VALID,54,VALID,0.426562,
2010-12-23, 02:07:05,VALID,995.947,VALID,0,VALID,91.7004,VALID,0,VALID,22.7664,VALID,54,VALID,0.437891,
2010-12-23, 02:08:05,VALID,995.965,VALID,0,VALID,91.7233,VALID,0,VALID,22.7647,VALID,54,VALID,0.4375,
2010-12-23, 02:09:05,VALID,995.963,VALID,0,VALID,91.7614,VALID,0,VALID,22.786,VALID,54,VALID,0.371875,
2010-12-23, 02:10:05,VALID,995.968,VALID,0,VALID,91.8225,VALID,0,VALID,22.7664,VALID,54,VALID,0.346484,
2010-12-23, 02:11:05,VALID,996.001,VALID,0,VALID,91.8301,VALID,0,VALID,22.7452,VALID,54,VALID,0.295312,
2010-12-23, 02:12:05,VALID,995.975,VALID,0,VALID,91.9064,VALID,0,VALID,22.7664,VALID,54,VALID,0.298047,
2010-12-23, 02:13:05,VALID,995.996,VALID,0,VALID,91.9674,VALID,0,VALID,22.786,VALID,54,VALID,0.456641,
2010-12-23, 02:14:05,VALID,995.964,VALID,0,VALID,92.0437,VALID,0,VALID,22.7842,VALID,54,VALID,0.546484,
2010-12-23, 02:15:05,VALID,995.969,VALID,0,VALID,92.0819,VALID,0,VALID,22.7842,VALID,73,VALID,0.725,
2010-12-23, 02:16:05,VALID,995.963,VALID,0,VALID,92.1277,VALID,0,VALID,22.7842,VALID,73,VALID,0.867188,
2010-12-23, 02:17:05,VALID,995.96,VALID,0,VALID,92.1811,VALID,0,VALID,22.7842,VALID,73,VALID,0.785156,
2010-12-23, 02:18:05,VALID,995.946,VALID,0,VALID,92.1734,VALID,0,VALID,22.825,VALID,73,VALID,0.656641,
2010-12-23, 02:19:05,VALID,995.953,VALID,0,VALID,92.1734,VALID,0,VALID,22.825,VALID,73,VALID,0.8625,
2010-12-23, 02:20:05,VALID,995.965,VALID,0,VALID,92.1658,VALID,0,VALID,22.825,VALID,73,VALID,0.866797,
2010-12-23, 02:21:05,VALID,995.951,VALID,0,VALID,92.1582,VALID,0,VALID,22.8055,VALID,73,VALID,0.961719,
2010-12-23, 02:22:05,VALID,995.934,VALID,0,VALID,92.1353,VALID,0,VALID,22.8037,VALID,73,VALID,0.86875,
2010-12-23, 02:23:05,VALID,995.982,VALID,0,VALID,92.1048,VALID,0,VALID,22.825,VALID,73,VALID,0.765625,
2010-12-23, 02:24:05,VALID,995.964,VALID,0,VALID,92.0743,VALID,0,VALID,22.825,VALID,73,VALID,0.654688,
2010-12-23, 02:25:05,VALID,995.992,VALID,0,VALID,92.0819,VALID,0,VALID,22.8037,VALID,73,VALID,0.600781,
2010-12-23, 02:26:05,VALID,995.985,VALID,0,VALID,92.0361,VALID,0,VALID,22.8037,VALID,73,VALID,0.507813,
2010-12-23, 02:27:05,VALID,995.985,VALID,0,VALID,91.998,VALID,0,VALID,22.8055,VALID,73,VALID,0.382813,
2010-12-23, 02:28:05,VALID,996.013,VALID,0,VALID,91.9598,VALID,0,VALID,22.8037,VALID,73,VALID,0.213281,
2010-12-23, 02:29:05,VALID,995.981,VALID,0,VALID,91.9217,VALID,0,VALID,22.8037,VALID,73,VALID,0.175391,
2010-12-23, 02:30:05,VALID,995.986,VALID,0,VALID,91.9064,VALID,0,VALID,22.8037,VALID,73,VALID,0.0734375,
2010-12-23, 02:31:05,VALID,995.985,VALID,0,VALID,91.9064,VALID,0,VALID,22.7842,VALID,73,VALID,0,
2010-12-23, 02:32:05,VALID,995.988,VALID,0,VALID,91.8988,VALID,0,VALID,22.7647,VALID,73,VALID,0,
2010-12-23, 02:33:05,VALID,995.974,VALID,0,VALID,91.853,VALID,0,VALID,22.786,VALID,73,VALID,0,
2010-12-23, 02:34:05,VALID,995.935,VALID,0,VALID,91.8454,VALID,0,VALID,22.7647,VALID,73,VALID,0,
2010-12-23, 02:35:05,VALID,995.933,VALID,0,VALID,91.853,VALID,0,VALID,22.786,VALID,73,VALID,0.320703,
2010-12-23, 02:36:05,VALID,995.89,VALID,0,VALID,91.8911,VALID,0,VALID,22.7647,VALID,73,VALID,0.530859,
2010-12-23, 02:37:05,VALID,995.894,VALID,0,VALID,91.8835,VALID,0,VALID,22.7842,VALID,73,VALID,0.595312,
2010-12-23, 02:38:05,VALID,995.905,VALID,0,VALID,91.914,VALID,0,VALID,22.825,VALID,73,VALID,0.504687,
2010-12-23, 02:39:05,VALID,995.92,VALID,0,VALID,91.9369,VALID,0,VALID,22.8232,VALID,73,VALID,0.460547,
2010-12-23, 02:40:05,VALID,995.931,VALID,0,VALID,91.9293,VALID,0,VALID,22.8427,VALID,73,VALID,0.462891,
2010-12-23, 02:41:05,VALID,995.904,VALID,0,VALID,91.8988,VALID,0,VALID,22.9013,VALID,73,VALID,0.280469,
2010-12-23, 02:42:05,VALID,995.923,VALID,0,VALID,91.853,VALID,0,VALID,22.88,VALID,73,VALID,0.285156,
2010-12-23, 02:43:05,VALID,995.931,VALID,0,VALID,91.7843,VALID,0,VALID,22.9208,VALID,73,VALID,0.159375,
2010-12-23, 02:44:05,VALID,995.945,VALID,0,VALID,91.7233,VALID,0,VALID,22.8995,VALID,73,VALID,0,
2010-12-23, 02:45:05,VALID,995.967,VALID,0,VALID,91.6699,VALID,0,VALID,22.8995,VALID,73,VALID,0,
2010-12-23, 02:46:05,VALID,995.943,VALID,0,VALID,91.6317,VALID,0,VALID,22.9403,VALID,73,VALID,0.240625,
2010-12-23, 02:47:05,VALID,995.938,VALID,0,VALID,91.6241,VALID,0,VALID,22.9598,VALID,73,VALID,0.364062,
2010-12-23, 02:48:05,VALID,995.929,VALID,0,VALID,91.6241,VALID,0,VALID,22.9385,VALID,113,VALID,0.685156,
2010-12-23, 02:49:05,VALID,995.93,VALID,0,VALID,91.6012,VALID,0,VALID,22.9581,VALID,122,VALID,0.723437,
2010-12-23, 02:50:05,VALID,995.943,VALID,0,VALID,91.5707,VALID,0,VALID,22.9776,VALID,122,VALID,0.760547,
2010-12-23, 02:51:05,VALID,995.937,VALID,0,VALID,91.4944,VALID,0,VALID,23.0166,VALID,138,VALID,0.801172,
2010-12-23, 02:52:05,VALID,995.954,VALID,0,VALID,91.3952,VALID,0,VALID,23.0361,VALID,138,VALID,0.707812,
2010-12-23, 02:53:05,VALID,995.975,VALID,0,VALID,91.2808,VALID,0,VALID,23.0573,VALID,138,VALID,0.717969,
2010-12-23, 02:54:05,VALID,995.975,VALID,0,VALID,91.1587,VALID,0,VALID,23.0556,VALID,138,VALID,0.495313,
2010-12-23, 02:55:05,VALID,995.999,VALID,0,VALID,91.0366,VALID,0.112286,VALID,23.0964,VALID,138,VALID,0.140625,
2010-12-23, 02:56:05,VALID,995.996,VALID,0,VALID,90.9222,VALID,0,VALID,23.0769,VALID,138,VALID,0.282031,
2010-12-23, 02:57:05,VALID,995.972,VALID,0,VALID,90.8383,VALID,0,VALID,23.0751,VALID,138,VALID,0.328516,
2010-12-23, 02:58:05,VALID,995.935,VALID,0,VALID,90.7238,VALID,0,VALID,23.0964,VALID,133,VALID,0.542578,
2010-12-23, 02:59:05,VALID,995.956,VALID,0,VALID,90.6094,VALID,0,VALID,23.1159,VALID,133,VALID,0.446875,
2010-12-23, 03:00:05,VALID,995.93,VALID,0,VALID,90.4263,VALID,0,VALID,23.1159,VALID,126,VALID,0.485547,
2010-12-23, 03:01:05,VALID,995.92,VALID,0,VALID,90.2966,VALID,0,VALID,23.1549,VALID,126,VALID,0.269141,
2010-12-23, 03:02:05,VALID,995.909,VALID,0,VALID,90.205,VALID,0,VALID,23.1336,VALID,126,VALID,0.283594,
2010-12-23, 03:03:05,VALID,995.886,VALID,0,VALID,90.1287,VALID,0,VALID,23.1549,VALID,126,VALID,0.405078,
2010-12-23, 03:04:05,VALID,995.868,VALID,0,VALID,90.0906,VALID,0,VALID,23.1531,VALID,126,VALID,0.710156,
2010-12-23, 03:05:05,VALID,995.868,VALID,0,VALID,90.0524,VALID,0,VALID,23.1531,VALID,126,VALID,0.642578,
2010-12-23, 03:06:05,VALID,995.864,VALID,0,VALID,90.0295,VALID,0,VALID,23.1921,VALID,126,VALID,0.424609,
2010-12-23, 03:07:05,VALID,995.888,VALID,0,VALID,89.9303,VALID,0,VALID,23.1726,VALID,126,VALID,0.610547,
2010-12-23, 03:08:05,VALID,995.878,VALID,0,VALID,89.9303,VALID,0,VALID,23.2134,VALID,126,VALID,0.505078,
2010-12-23, 03:09:05,VALID,995.919,VALID,0,VALID,89.8846,VALID,0,VALID,23.1921,VALID,126,VALID,0.457422,
2010-12-23, 03:10:05,VALID,995.881,VALID,0,VALID,89.8846,VALID,0,VALID,23.2329,VALID,126,VALID,0.375391,
2010-12-23, 03:11:05,VALID,995.914,VALID,0,VALID,89.9151,VALID,0,VALID,23.2117,VALID,126,VALID,0.371875,
2010-12-23, 03:12:05,VALID,995.917,VALID,0,VALID,89.8693,VALID,0,VALID,23.2524,VALID,126,VALID,0.462109,
2010-12-23, 03:13:05,VALID,995.925,VALID,0,VALID,89.8311,VALID,0,VALID,23.2312,VALID,126,VALID,0.406641,
2010-12-23, 03:14:05,VALID,995.914,VALID,0,VALID,89.793,VALID,0,VALID,23.2719,VALID,126,VALID,0.596875,
2010-12-23, 03:15:05,VALID,995.897,VALID,0,VALID,89.7701,VALID,0,VALID,23.2702,VALID,126,VALID,0.549219,
2010-12-23, 03:16:05,VALID,995.919,VALID,0,VALID,89.732,VALID,0,VALID,23.2702,VALID,126,VALID,0.564062,
2010-12-23, 03:17:05,VALID,995.918,VALID,0,VALID,89.7167,VALID,0,VALID,23.2915,VALID,126,VALID,0.632422,
2010-12-23, 03:18:05,VALID,995.919,VALID,0,VALID,89.7472,VALID,0,VALID,23.2915,VALID,126,VALID,0.423828,
2010-12-23, 03:19:05,VALID,995.916,VALID,0,VALID,89.7396,VALID,0,VALID,23.2719,VALID,126,VALID,0.292578,
2010-12-23, 03:20:05,VALID,995.945,VALID,0,VALID,89.7091,VALID,0,VALID,23.2507,VALID,126,VALID,0.250391,
2010-12-23, 03:21:05,VALID,995.971,VALID,0,VALID,89.6786,VALID,0,VALID,23.2507,VALID,126,VALID,0.152734,
2010-12-23, 03:22:05,VALID,995.995,VALID,0,VALID,89.6786,VALID,0,VALID,23.2524,VALID,126,VALID,0.0945313,
2010-12-23, 03:23:05,VALID,995.983,VALID,0,VALID,89.7014,VALID,0,VALID,23.2117,VALID,126,VALID,0.282422,
2010-12-23, 03:24:05,VALID,996.007,VALID,0,VALID,89.6709,VALID,0,VALID,23.2329,VALID,126,VALID,0.158594,
2010-12-23, 03:25:05,VALID,996.012,VALID,0,VALID,89.5946,VALID,0,VALID,23.2312,VALID,126,VALID,0.103906,
2010-12-23, 03:26:05,VALID,996.035,VALID,0,VALID,89.6404,VALID,0,VALID,23.2719,VALID,126,VALID,0.0921875,
2010-12-23, 03:27:05,VALID,996.079,VALID,0,VALID,89.6404,VALID,0,VALID,23.2719,VALID,126,VALID,0.105078,
2010-12-23, 03:28:05,VALID,996.101,VALID,0,VALID,89.6099,VALID,0,VALID,23.2507,VALID,126,VALID,0.482812,
2010-12-23, 03:29:05,VALID,996.137,VALID,0,VALID,89.526,VALID,0,VALID,23.2524,VALID,126,VALID,0.321094,
2010-12-23, 03:30:05,VALID,996.178,VALID,0,VALID,89.4268,VALID,0,VALID,23.2507,VALID,126,VALID,0.3875,
2010-12-23, 03:31:05,VALID,996.22,VALID,0,VALID,89.3428,VALID,0,VALID,23.2719,VALID,126,VALID,0.436328,
2010-12-23, 03:32:05,VALID,996.214,VALID,0,VALID,89.2513,VALID,0,VALID,23.2915,VALID,126,VALID,0.375,
2010-12-23, 03:33:05,VALID,996.253,VALID,0,VALID,89.175,VALID,0,VALID,23.2915,VALID,126,VALID,0.4375,
2010-12-23, 03:34:05,VALID,996.273,VALID,0,VALID,89.1597,VALID,0,VALID,23.311,VALID,126,VALID,0.446875,
2010-12-23, 03:35:05,VALID,996.276,VALID,0,VALID,89.0911,VALID,0,VALID,23.3092,VALID,126,VALID,0.277344,
2010-12-23, 03:36:04,VALID,996.295,VALID,0,VALID,89.0071,VALID,0,VALID,23.3287,VALID,126,VALID,0.211719,
2010-12-23, 03:37:04,VALID,996.309,VALID,0,VALID,88.9461,VALID,0,VALID,23.3287,VALID,126,VALID,0.278516,
2010-12-23, 03:38:04,VALID,996.304,VALID,0,VALID,88.8698,VALID,0,VALID,23.3287,VALID,126,VALID,0.390625,
2010-12-23, 03:39:04,VALID,996.283,VALID,0,VALID,88.824,VALID,0,VALID,23.3482,VALID,126,VALID,0.343359,
2010-12-23, 03:40:04,VALID,996.317,VALID,0,VALID,88.8393,VALID,0,VALID,23.3287,VALID,126,VALID,0.400391,
2010-12-23, 03:41:04,VALID,996.31,VALID,0,VALID,88.9614,VALID,0,VALID,23.3305,VALID,126,VALID,0.491016,
2010-12-23, 03:42:04,VALID,996.329,VALID,0,VALID,89.1597,VALID,0,VALID,23.311,VALID,126,VALID,0.467187,
2010-12-23, 03:43:04,VALID,996.338,VALID,0,VALID,89.3352,VALID,0,VALID,23.3127,VALID,126,VALID,0.499609,
2010-12-23, 03:44:04,VALID,996.353,VALID,0,VALID,89.4726,VALID,0,VALID,23.2719,VALID,55,VALID,0.758203,
2010-12-23, 03:45:04,VALID,996.374,VALID,0,VALID,89.648,VALID,0,VALID,23.2329,VALID,49,VALID,0.747656,
2010-12-23, 03:46:04,VALID,996.37,VALID,0,VALID,89.8235,VALID,0,VALID,23.1939,VALID,36,VALID,0.691797,